Weather History for Jacksonville, IL

Change the Weather History Date:

Saturday, May 3, 2014

  Actual Average (KSPI) Record (KSPI)
Temperature  
Mean Temperature 58 °F 60 °F  
Max Temperature 73 °F 71 °F 89 °F (1959)
Min Temperature 44 °F 48 °F 29 °F (1976)
Degree Days  
Heating Degree Days 7 7  
Month to date heating degree days 21  
Since 1 July heating degree days 5366  
Cooling Degree Days 0 1  
Month to date cooling degree days 3  
Year to date cooling degree days 23  
Growing Degree Days 8 (Base 50)    
Moisture  
Dew Point 40 °F    
Average Humidity 49    
Maximum Humidity 83    
Minimum Humidity 26    
Precipitation  
Precipitation 0.00 in 0.13 in 2.18 in (2013)
Month to date precipitation 0.39  
Year to date precipitation 10.16  
Snow  
Snow 0.00 in 0.00 in T in (1954)
Month to date snowfall 0.0  
Since 1 July snowfall 20.9  
Snow Depth -    
Sea Level Pressure  
Sea Level Pressure 29.89 in    
Wind  
Wind Speed 10 mph (WSW)    
Max Wind Speed 17 mph    
Max Gust Speed 25 mph    
Visibility 10 miles    
Events      
T = Trace of Precipitation, MM = Missing Value Source: NWS Daily Summary

Daily Weather History Graph

Daily Weather History Graph

Search for Another Location

Airport:

Trip Planner

Search our weather history database for the weather conditions in past years. The results will help you decide how hot, cold, wet, or windy it might be!

Date:

Astronomy

May. 03, 2014 Rise Set
Actual Time 5:59 AM CDT 7:57 PM CDT
Civil Twilight 5:29 AM CDT 8:26 PM CDT
Nautical Twilight 4:53 AM CDT 9:02 PM CDT
Astronomical Twilight 4:15 AM CDT 9:41 PM CDT
Moon 9:28 AM CDT (5/3) No Moon Set
Length of Visible Light 14h 57m
Length of Day
13h 58m
Waxing Crescent, 20% of the Moon is Illuminated
May 3
Waxing Crescent
May 6
First Quarter
May 14
Full
May 21
Last Quarter
May 28
New

Hourly Weather History & Observations

Time (CDT) Temp. Windchill Dew Point Humidity Pressure Visibility Wind Dir Wind Speed Gust Speed Precip Events Conditions
12:15 AM 54.5 °F - 41.0 °F 60% 29.79 in 10.0 mi SSW 11.5 mph - N/A   Scattered Clouds
12:35 AM 55.2 °F - 40.6 °F 58% 29.79 in 10.0 mi SSW 12.7 mph - N/A   Mostly Cloudy
12:55 AM 55.8 °F - 40.6 °F 57% 29.78 in 10.0 mi SSW 11.5 mph - N/A   Overcast
1:15 AM 55.6 °F - 40.8 °F 58% 29.78 in 10.0 mi SSW 11.5 mph - N/A   Overcast
1:35 AM 54.3 °F - 41.4 °F 62% 29.79 in 10.0 mi SW 10.4 mph - N/A   Overcast
1:55 AM 53.8 °F - 41.9 °F 64% 29.79 in 10.0 mi SW 6.9 mph - N/A   Overcast
2:15 AM 54.3 °F - 41.2 °F 61% 29.79 in 10.0 mi WSW 6.9 mph - N/A   Overcast
2:35 AM 54.3 °F - 40.6 °F 60% 29.80 in 10.0 mi SW 8.1 mph - N/A   Mostly Cloudy
2:55 AM 54.5 °F - 41.0 °F 60% 29.80 in 10.0 mi WSW 8.1 mph - N/A   Mostly Cloudy
3:15 AM 53.8 °F - 40.6 °F 61% 29.81 in 10.0 mi West 6.9 mph - N/A   Mostly Cloudy
3:35 AM 50.7 °F - 41.0 °F 69% 29.81 in 10.0 mi West 6.9 mph - N/A   Clear
3:55 AM 49.8 °F - 40.5 °F 70% 29.81 in 10.0 mi West 6.9 mph - N/A   Clear
4:15 AM 49.5 °F - 40.5 °F 71% 29.82 in 10.0 mi West 6.9 mph - N/A   Clear
4:35 AM 50.2 °F - 40.5 °F 69% 29.82 in 10.0 mi WSW 5.8 mph - N/A   Clear
4:55 AM 48.4 °F - 40.1 °F 73% 29.83 in 10.0 mi WSW 5.8 mph - N/A   Clear
5:15 AM 47.5 °F - 40.1 °F 76% 29.83 in 10.0 mi WSW 5.8 mph - N/A   Clear
5:35 AM 46.8 °F - 39.9 °F 77% 29.84 in 10.0 mi West 3.5 mph - N/A   Clear
5:55 AM 45.3 °F 42.3 °F 39.4 °F 80% 29.84 in 10.0 mi West 5.8 mph - N/A   Clear
6:15 AM 44.8 °F 41.6 °F 39.4 °F 81% 29.85 in 10.0 mi West 5.8 mph - N/A   Clear
6:35 AM 44.1 °F 40.1 °F 39.2 °F 83% 29.86 in 10.0 mi West 6.9 mph - N/A   Clear
6:55 AM 46.9 °F - 40.6 °F 79% 29.87 in 10.0 mi WSW 5.8 mph - N/A   Clear
7:15 AM 51.6 °F - 41.5 °F 68% 29.88 in 10.0 mi West 8.1 mph - N/A   Clear
7:35 AM 53.6 °F - 41.9 °F 65% 29.89 in 10.0 mi West 8.1 mph - N/A   Clear
7:55 AM 55.0 °F - 42.6 °F 63% 29.89 in 10.0 mi West 8.1 mph - N/A   Clear
8:15 AM 56.5 °F - 42.4 °F 59% 29.90 in 10.0 mi West 10.4 mph - N/A   Clear
8:35 AM 58.1 °F - 42.4 °F 56% 29.91 in 10.0 mi West 9.2 mph - N/A   Clear
8:55 AM 59.5 °F - 41.4 °F 51% 29.91 in 10.0 mi West 10.4 mph - N/A   Clear
9:15 AM 59.9 °F - 40.6 °F 49% 29.90 in 10.0 mi West 10.4 mph - N/A   Clear
9:35 AM 61.0 °F - 39.4 °F 45% 29.91 in 10.0 mi NW 9.2 mph - N/A   Clear
9:55 AM 61.9 °F - 38.3 °F 42% 29.92 in 10.0 mi WNW 9.2 mph - N/A   Clear
10:15 AM 63.0 °F - 38.7 °F 41% 29.93 in 10.0 mi WNW 12.7 mph - N/A   Clear
10:35 AM 63.5 °F - 37.6 °F 38% 29.93 in 10.0 mi NW 9.2 mph - N/A   Clear
10:55 AM 64.6 °F - 38.1 °F 38% 29.93 in 10.0 mi NW 13.8 mph 19.6 mph N/A   Clear
11:15 AM 65.1 °F - 36.9 °F 35% 29.94 in 10.0 mi NW 12.7 mph 17.3 mph N/A   Clear
11:35 AM 65.3 °F - 37.8 °F 36% 29.93 in 10.0 mi NW 12.7 mph 18.4 mph N/A   Clear
11:55 AM 66.2 °F - 37.8 °F 35% 29.93 in 10.0 mi NW 11.5 mph 16.1 mph N/A   Clear
12:15 PM 67.1 °F - 37.9 °F 34% 29.93 in 10.0 mi NW 15.0 mph - N/A   Clear
12:35 PM 67.6 °F - 36.9 °F 32% 29.93 in 10.0 mi West 16.1 mph 23.0 mph N/A   Clear
12:55 PM 68.7 °F - 36.7 °F 31% 29.93 in 10.0 mi West 13.8 mph 21.9 mph N/A   Clear
1:15 PM 69.3 °F - 36.3 °F 30% 29.93 in 10.0 mi West 17.3 mph 25.3 mph N/A   Clear
1:35 PM 69.4 °F - 34.9 °F 28% 29.93 in 10.0 mi West 17.3 mph 24.2 mph N/A   Clear
1:55 PM 69.8 °F - 34.9 °F 28% 29.93 in 10.0 mi WNW 12.7 mph 23.0 mph N/A   Clear
2:15 PM 70.2 °F - 36.9 °F 30% 29.92 in 10.0 mi West 11.5 mph - N/A   Clear
2:35 PM 71.6 °F - 36.5 °F 28% 29.92 in 10.0 mi West 11.5 mph 17.3 mph N/A   Clear
2:55 PM 71.4 °F - 36.3 °F 28% 29.91 in 10.0 mi West 15.0 mph 19.6 mph N/A   Clear
3:15 PM 71.6 °F - 37.0 °F 28% 29.91 in 10.0 mi West 16.1 mph 19.6 mph N/A   Clear
3:35 PM 72.1 °F - 36.5 °F 27% 29.91 in 10.0 mi West 15.0 mph 19.6 mph N/A   Clear
3:55 PM 72.9 °F - 37.0 °F 27% 29.91 in 10.0 mi West 15.0 mph 19.6 mph N/A   Clear
4:15 PM 72.5 °F - 36.1 °F 27% 29.91 in 10.0 mi West 15.0 mph 19.6 mph N/A   Clear
4:35 PM 72.3 °F - 35.8 °F 26% 29.90 in 10.0 mi West 15.0 mph 18.4 mph N/A   Clear
4:55 PM 72.5 °F - 36.7 °F 27% 29.91 in 10.0 mi West 12.7 mph 18.4 mph N/A   Clear
5:15 PM 71.4 °F - 36.3 °F 28% 29.91 in 10.0 mi WSW 13.8 mph 21.9 mph N/A   Clear
5:35 PM 71.1 °F - 37.0 °F 29% 29.91 in 10.0 mi West 12.7 mph - N/A   Clear
5:55 PM 72.0 °F - 37.4 °F 28% 29.91 in 10.0 mi WSW 9.2 mph - N/A   Clear
6:15 PM 72.3 °F - 37.8 °F 28% 29.90 in 10.0 mi WSW 8.1 mph - N/A   Clear
6:35 PM 71.2 °F - 37.4 °F 29% 29.90 in 10.0 mi WSW 4.6 mph - N/A   Clear
6:55 PM 69.8 °F - 38.5 °F 32% 29.91 in 10.0 mi WSW 6.9 mph - N/A   Clear
7:15 PM 69.3 °F - 39.6 °F 34% 29.92 in 10.0 mi WSW 6.9 mph - N/A   Clear
7:35 PM 68.0 °F - 39.4 °F 35% 29.93 in 10.0 mi WSW 5.8 mph - N/A   Clear
7:55 PM 65.7 °F - 41.5 °F 41% 29.93 in 10.0 mi WSW 6.9 mph - N/A   Clear
8:15 PM 64.4 °F - 42.1 °F 44% 29.93 in 10.0 mi WSW 4.6 mph - N/A   Clear
8:35 PM 63.7 °F - 42.3 °F 46% 29.94 in 4.0 mi WSW 5.8 mph - N/A   Haze
8:55 PM 63.0 °F - 42.1 °F 46% 29.93 in 7.0 mi SW 4.6 mph - N/A   Clear
9:15 PM 63.0 °F - 41.7 °F 46% 29.94 in 10.0 mi WSW 3.5 mph - N/A   Clear
9:35 PM 60.3 °F - 43.9 °F 55% 29.94 in 10.0 mi SSW 4.6 mph - N/A   Clear
9:55 PM 58.8 °F - 45.5 °F 61% 29.95 in 10.0 mi SSW 5.8 mph - N/A   Clear
10:15 PM 59.7 °F - 43.3 °F 55% 29.95 in 10.0 mi SW 4.6 mph - N/A   Clear
10:35 PM 59.0 °F - 43.9 °F 57% 29.95 in 10.0 mi SSW 5.8 mph - N/A   Clear
10:55 PM 59.4 °F - 43.0 °F 55% 29.95 in 10.0 mi SSW 5.8 mph - N/A   Clear
11:15 PM 59.0 °F - 43.9 °F 57% 29.95 in 10.0 mi SW 5.8 mph - N/A   Clear
11:35 PM 59.7 °F - 43.3 °F 55% 29.95 in 10.0 mi SW 6.9 mph - N/A   Clear
11:55 PM 59.0 °F - 42.4 °F 54% 29.96 in 10.0 mi Calm Calm - N/A   Clear